EN

Hourly Weather Kzyl-Yalan

Today, 24 July, Saturday

Time Temperature Precipitation Wind Pressure Humidity
00:00 +17°C° 0 mm 2 mps 743 mmHg 61%
01:00 +17°C° 0 mm 2 mps 743 mmHg 61%
02:00 +17°C° 0 mm 2 mps 743 mmHg 62%
03:00 +17°C° 0 mm 2 mps 743 mmHg 63%
04:00 +17°C° 0 mm 3 mps 743 mmHg 65%
05:00 +17°C° 0 mm 3 mps 743 mmHg 66%
06:00 +18°C° 0 mm 3 mps 743 mmHg 67%
07:00 +19°C° 0 mm 4 mps 744 mmHg 64%
08:00 +20°C° 0 mm 4 mps 744 mmHg 61%
09:00 +21°C° 0 mm 5 mps 744 mmHg 58%
10:00 +21°C° 0 mm 5 mps 744 mmHg 55%
11:00 +22°C° 0 mm 5 mps 745 mmHg 53%
12:00 +22°C° 0 mm 5 mps 745 mmHg 50%
13:00 +22°C° 0.2 mm 5 mps 745 mmHg 54%
14:00 +21°C° 0.2 mm 5 mps 746 mmHg 57%
15:00 +20°C° 0.2 mm 5 mps 746 mmHg 61%
16:00 +20°C° 0.2 mm 5 mps 747 mmHg 63%
17:00 +19°C° 0.2 mm 4 mps 747 mmHg 65%
18:00 +18°C° 0.2 mm 4 mps 747 mmHg 67%
19:00 +17°C° 0 mm 4 mps 748 mmHg 68%
20:00 +16°C° 0 mm 3 mps 749 mmHg 69%
21:00 +14°C° 0 mm 3 mps 749 mmHg 70%
22:00 +13°C° 0 mm 3 mps 750 mmHg 71%
23:00 +12°C° 0 mm 3 mps 750 mmHg 72%

Tomorrow, 25 July, Sunday

Time Temperature Precipitation Wind Pressure Humidity
00:00 +11°C° 0 mm 3 mps 750 mmHg 72%
01:00 +11°C° 0 mm 3 mps 751 mmHg 73%
02:00 +10°C° 0 mm 3 mps 751 mmHg 74%
03:00 +10°C° 0 mm 3 mps 752 mmHg 74%
04:00 +11°C° 0 mm 3 mps 752 mmHg 71%
05:00 +12°C° 0 mm 3 mps 753 mmHg 67%
06:00 +13°C° 0 mm 3 mps 753 mmHg 63%
07:00 +14°C° 0 mm 3 mps 754 mmHg 56%
08:00 +17°C° 0 mm 3 mps 754 mmHg 49%
09:00 +18°C° 0 mm 3 mps 754 mmHg 42%
10:00 +19°C° 0 mm 3 mps 754 mmHg 39%
11:00 +20°C° 0 mm 3 mps 755 mmHg 36%
12:00 +20°C° 0 mm 4 mps 755 mmHg 34%
13:00 +21°C° 0 mm 3 mps 755 mmHg 34%
14:00 +21°C° 0 mm 3 mps 755 mmHg 34%
15:00 +21°C° 0 mm 3 mps 755 mmHg 34%
16:00 +21°C° 0 mm 3 mps 755 mmHg 38%
17:00 +20°C° 0 mm 2 mps 755 mmHg 42%
18:00 +21°C° 0 mm 1 mps 755 mmHg 46%
19:00 +19°C° 0 mm 1 mps 756 mmHg 48%
20:00 +18°C° 0 mm 1 mps 756 mmHg 50%
21:00 +15°C° 0 mm 1 mps 756 mmHg 52%
22:00 +15°C° 0 mm 1 mps 756 mmHg 53%
23:00 +15°C° 0 mm 2 mps 756 mmHg 54%

Day after tomorrow, 26 July, Monday

Time Temperature Precipitation Wind Pressure Humidity
00:00 +15°C° 0 mm 2 mps 756 mmHg 55%
01:00 +15°C° 0 mm 2 mps 756 mmHg 55%
02:00 +15°C° 0 mm 2 mps 757 mmHg 55%
03:00 +15°C° 0 mm 2 mps 757 mmHg 55%
04:00 +15°C° 0 mm 2 mps 757 mmHg 55%
05:00 +16°C° 0 mm 2 mps 757 mmHg 55%
06:00 +16°C° 0 mm 2 mps 757 mmHg 55%
07:00 +18°C° 0 mm 3 mps 757 mmHg 51%
08:00 +20°C° 0 mm 3 mps 757 mmHg 47%
09:00 +21°C° 0 mm 4 mps 757 mmHg 43%
10:00 +22°C° 0 mm 4 mps 757 mmHg 40%
11:00 +23°C° 0 mm 4 mps 757 mmHg 38%
12:00 +25°C° 0 mm 4 mps 757 mmHg 36%
13:00 +23°C° 0 mm 4 mps 757 mmHg 38%
14:00 +23°C° 0 mm 4 mps 756 mmHg 41%
15:00 +22°C° 0 mm 4 mps 756 mmHg 44%
16:00 +22°C° 0 mm 3 mps 756 mmHg 45%
17:00 +21°C° 0 mm 3 mps 756 mmHg 46%
18:00 +21°C° 0 mm 2 mps 756 mmHg 48%
19:00 +20°C° 0 mm 2 mps 756 mmHg 51%
20:00 +19°C° 0 mm 2 mps 755 mmHg 54%
21:00 +18°C° 0 mm 2 mps 755 mmHg 56%
22:00 +18°C° 0 mm 2 mps 755 mmHg 58%
23:00 +18°C° 0 mm 2 mps 755 mmHg 59%

27 July, Tuesday

Time Temperature Precipitation Wind Pressure Humidity
00:00 +17°C° 0 mm 2 mps 755 mmHg 61%
01:00 +16°C° 0 mm 2 mps 755 mmHg 64%
02:00 +16°C° 0 mm 3 mps 755 mmHg 67%
03:00 +14°C° 0 mm 3 mps 755 mmHg 70%
04:00 +16°C° 0 mm 3 mps 755 mmHg 66%
05:00 +17°C° 0 mm 3 mps 755 mmHg 63%
06:00 +18°C° 0 mm 3 mps 755 mmHg 60%
07:00 +20°C° 0 mm 4 mps 755 mmHg 56%
08:00 +21°C° 0 mm 4 mps 754 mmHg 52%
09:00 +22°C° 0 mm 5 mps 754 mmHg 48%
10:00 +23°C° 0 mm 5 mps 754 mmHg 46%
11:00 +25°C° 0 mm 5 mps 754 mmHg 45%
12:00 +26°C° 0 mm 5 mps 754 mmHg 44%
13:00 +26°C° 0 mm 4 mps 754 mmHg 45%
14:00 +25°C° 0 mm 4 mps 753 mmHg 47%
15:00 +25°C° 0 mm 3 mps 753 mmHg 49%
16:00 +25°C° 0 mm 2 mps 753 mmHg 50%
17:00 +24°C° 0 mm 2 mps 753 mmHg 52%
18:00 +24°C° 0 mm 1 mps 753 mmHg 53%
19:00 +22°C° 0.1 mm 1 mps 753 mmHg 61%
20:00 +21°C° 0.1 mm 1 mps 753 mmHg 68%
21:00 +18°C° 0.1 mm 2 mps 753 mmHg 75%
22:00 +17°C° 0 mm 2 mps 753 mmHg 80%
23:00 +16°C° 0 mm 2 mps 753 mmHg 84%

28 July, Wednesday

Time Temperature Precipitation Wind Pressure Humidity
00:00 +16°C° 0 mm 2 mps 753 mmHg 88%
01:00 +15°C° 0 mm 2 mps 753 mmHg 89%
02:00 +15°C° 0 mm 1 mps 753 mmHg 90%
03:00 +14°C° 0 mm 1 mps 753 mmHg 91%
04:00 +15°C° 0 mm 1 mps 753 mmHg 87%
05:00 +16°C° 0 mm 1 mps 753 mmHg 83%
06:00 +18°C° 0 mm 1 mps 753 mmHg 80%
07:00 +20°C° 0 mm 1 mps 753 mmHg 73%
08:00 +21°C° 0 mm 1 mps 753 mmHg 66%
09:00 +23°C° 0 mm 2 mps 753 mmHg 59%
10:00 +24°C° 0 mm 2 mps 753 mmHg 54%
11:00 +25°C° 0 mm 3 mps 752 mmHg 49%
12:00 +26°C° 0 mm 3 mps 752 mmHg 44%
13:00 +26°C° 0 mm 3 mps 752 mmHg 42%
14:00 +27°C° 0 mm 4 mps 751 mmHg 39%
15:00 +27°C° 0 mm 4 mps 751 mmHg 37%
16:00 +27°C° 0 mm 3 mps 751 mmHg 41%
17:00 +26°C° 0 mm 3 mps 750 mmHg 44%
18:00 +26°C° 0 mm 3 mps 750 mmHg 47%
19:00 +24°C° 0 mm 3 mps 750 mmHg 51%
20:00 +22°C° 0 mm 3 mps 750 mmHg 55%
21:00 +20°C° 0 mm 3 mps 750 mmHg 59%
22:00 +20°C° 0.1 mm 3 mps 750 mmHg 62%
23:00 +19°C° 0.1 mm 3 mps 749 mmHg 65%

29 July, Thursday

Time Temperature Precipitation Wind Pressure Humidity
00:00 +18°C° 0.1 mm 3 mps 749 mmHg 68%
01:00 +18°C° 0.1 mm 3 mps 749 mmHg 72%
02:00 +18°C° 0.1 mm 3 mps 749 mmHg 76%
03:00 +17°C° 0.1 mm 3 mps 749 mmHg 80%
04:00 +18°C° 0 mm 3 mps 749 mmHg 77%
05:00 +19°C° 0 mm 3 mps 749 mmHg 74%
06:00 +20°C° 0 mm 3 mps 749 mmHg 71%
07:00 +22°C° 0 mm 3 mps 749 mmHg 63%
08:00 +25°C° 0 mm 3 mps 749 mmHg 55%
09:00 +27°C° 0 mm 4 mps 749 mmHg 48%
10:00 +28°C° 0 mm 4 mps 749 mmHg 44%
11:00 +29°C° 0 mm 4 mps 748 mmHg 41%
12:00 +30°C° 0 mm 4 mps 748 mmHg 38%
13:00 +30°C° 0 mm 4 mps 748 mmHg 38%
14:00 +30°C° 0 mm 5 mps 748 mmHg 39%
15:00 +30°C° 0 mm 5 mps 748 mmHg 39%
16:00 +29°C° 0 mm 4 mps 747 mmHg 41%
17:00 +28°C° 0 mm 3 mps 747 mmHg 43%
18:00 +28°C° 0 mm 3 mps 747 mmHg 45%
19:00 +26°C° 0 mm 2 mps 747 mmHg 50%
20:00 +25°C° 0 mm 2 mps 747 mmHg 55%
21:00 +23°C° 0 mm 1 mps 747 mmHg 60%
22:00 +23°C° 0 mm 2 mps 746 mmHg 59%
23:00 +22°C° 0 mm 3 mps 746 mmHg 57%
Show more